Tracking 19794 objects as of 21-Jul-2019
HD Live streaming from Space Station
objects crossing your sky now

ARIANE 2 DEB

Track ARIANE 2 DEB now!


NORAD ID: 27039
Int'l Code: 1989-006U
Perigee: 602.0 km
Apogee: 35,696.1 km
Inclination: 8.5 °
Period: 636.9 minutes
Semi major axis: 24520 km
RCS: 0.3487 m2 (medium)
Launch date: January 27, 1989
Source: France (FR)
Launch site: FRENCH GUIANA (FRGUI)

Note: This is SATELLITE DEBRIS
aabbcc
Your satellite tracking list
Your tracking list is empty




NASA's NSSDC Master Catalog

Two Line Element Set (TLE):
1 27039U 89006U   19199.86778163 -.00000100 +00000-0 -14601-4 0  9998
2 27039 008.5208 030.8099 7156211 207.1642 351.9713 02.26110474148997
Source of the keplerian elements: AFSPC